Portada
METAR-TAF:

METAR-TAF

Aeroports :

Waterville Robert LaFleur Airport

Waterville, Maine, Estats Units d'Amèrica

latitud: 44-32N, longitud: 069-41W, altitud: 101 m

Observació

L'informe es va fer fa 13 minuts, a les 04:56 UTC
Vent calma
Temperatura -2°C
Humitat 100%
Pressió 1019 hPa
Visibilitat: 8.0 km
Cel clar
boirina

METAR: KWVL 300456Z AUTO 00000KT 5SM BR CLR M02/M02 A3009 RMK AO2 SLP220 T10171022 400891017 FZRANO

Hora: 00:09 (05:09 UTC)


TAF: manca

Observacions i pronòstics meteorològics de més de 4000 aeroports (METAR i TAF).

Les estacions disponibles són els punts grocs i vermells al mapa.

Posi el ratolí al punt desitjat per veure el nom de l'estació.

Feu clic per veure les observacions i els pronòstics meteorològics.

Per canviar el mapa: feu clic els botons verds amb una creu de color negre per apropar; al botó verd amb un guió per allunyar la imatge; o en les fletxes verdes per a mapes adjacents.


METAR-TAF: